Wind_Speed
12 15 16 15 15 15 15 15 14 14 14 13 11 10 9 9 9 9 9 10 10 11 13 14 15 16 17 17 17 17 17 18 19 19 18 19 21 22 22 22 21 20 19
12 14 15 15 15 14 13 13 13 13 13 13 12 11 10 10 10 10 10 10 12 13 14 15 16 17 17 17 17 18 19 20 21 21 21 22 23 23 23 23 24 22 21
12 12 12 13 12 11 10 9 9 10 11 11 11 11 11 12 12 13 13 13 14 15 16 17 18 18 18 17 17 18 19 20 21 22 23 24 24 24 25 26 26 26 24
11 11 10 10 9 10 10 8 7 8 9 10 11 11 12 13 14 15 15 16 16 17 17 17 17 17 17 17 17 17 18 19 20 21 22 23 24 25 27 28 27 28 29
10 8 8 9 10 12 12 11 9 8 9 9 10 11 12 12 13 14 15 16 17 17 18 18 17 18 19 19 19 20 21 21 21 22 23 24 27 28 29 30 30 31 33
8 8 8 8 9 11 11 11 11 9 9 9 9 9 10 9 9 10 11 13 15 16 16 17 18 19 20 21 22 23 24 24 23 23 24 27 29 30 31 32 33 34 35
7 7 7 6 6 8 8 8 9 9 11 10 9 9 9 10 9 10 11 12 15 16 17 18 19 20 21 22 23 24 25 26 26 27 28 29 30 31 32 32 33 33 32
9 6 2 6 8 9 10 9 10 11 12 11 10 10 11 11 11 12 13 15 17 17 17 18 19 20 22 24 25 25 26 27 28 28 30 30 29 30 31 31 32 32 32
11 8 3 4 8 10 10 11 12 12 12 12 12 12 12 13 15 16 17 18 19 19 20 20 21 23 24 25 26 26 27 29 30 30 31 32 32 32 32 32 32 32 33
12 11 10 5 5 10 13 12 10 10 10 11 13 14 14 16 18 20 20 19 20 21 21 22 23 24 25 26 27 28 29 31 32 33 34 34 34 35 35 35 36 35 35
11 11 9 9 5 6 11 13 11 11 11 14 16 17 18 19 20 20 19 18 19 21 21 22 23 25 26 27 29 31 31 33 34 35 36 36 37 38 38 38 39 39 38
10 10 9 8 7 4 5 9 11 11 12 14 16 17 18 19 20 19 16 16 18 19 20 21 22 24 25 27 28 29 30 31 33 35 36 37 38 39 40 40 41 42 41
8 9 9 9 10 8 7 7 9 11 13 16 17 19 20 21 20 19 18 18 19 19 20 21 22 23 24 26 27 27 27 29 32 34 36 36 38 38 39 41 43 44 44
7 6 7 8 9 9 9 10 11 13 15 17 19 20 20 21 21 20 20 20 20 20 20 22 24 25 26 26 26 27 29 32 34 36 38 38 38 39 41 42 44 46 47
7 6 6 6 6 7 9 10 11 12 14 16 18 19 20 20 19 19 20 19 18 19 21 22 24 25 25 26 28 31 33 36 38 39 41 41 43 45 45 46 47 48 49
8 7 7 6 5 7 8 9 9 11 13 15 17 18 19 18 19 19 19 19 19 20 22 25 26 28 30 32 34 36 37 40 42 43 46 48 48 50 52 51 50 51 52
10 8 7 6 5 7 9 9 9 10 12 15 17 17 18 18 19 20 20 19 20 22 25 28 30 33 35 36 38 40 43 45 47 49 51 53 54 55 56 56 56 56 56
12 10 9 6 5 7 10 12 13 13 14 16 18 18 18 18 19 20 20 21 23 25 27 30 33 36 38 40 42 44 47 50 52 53 55 57 58 59 60 62 63 63 62
15 14 11 9 9 11 13 15 17 18 20 22 23 22 22 21 21 22 23 24 25 27 30 33 36 39 40 42 45 48 52 55 57 58 60 61 62 63 65 68 68 67 67
18 17 14 13 14 16 17 19 20 21 23 25 26 26 27 27 27 28 28 29 30 33 37 40 41 42 43 44 48 52 56 60 62 63 63 64 66 67 68 70 70 70 68
21 19 17 18 20 22 23 24 24 26 28 28 27 28 30 32 33 34 34 34 36 39 42 44 46 47 47 48 52 55 58 61 64 65 64 65 68 69 68 65 63 62 60
28 26 22 22 23 25 27 29 30 31 32 33 32 33 35 37 37 38 39 38 40 43 45 47 49 50 52 54 56 58 59 61 64 65 65 66 66 63 58 53 49 48 47
32 31 30 29 28 29 31 32 34 35 37 38 40 41 42 43 42 42 44 46 48 49 50 52 53 53 55 57 59 59 61 62 65 67 67 63 55 49 48 46 44 43 43
33 34 35 34 32 32 33 35 38 39 40 42 44 45 48 48 48 49 50 52 54 54 54 55 55 56 57 59 61 61 62 63 63 61 56 52 48 45 45 44 43 44 45
36 37 37 37 35 34 36 38 40 42 46 47 47 48 51 52 53 52 51 51 52 53 54 56 57 57 59 61 62 62 61 56 52 49 47 46 46 45 44 44 46 48 49
38 39 40 39 37 37 37 39 42 44 47 49 50 50 49 49 49 48 48 48 49 51 53 56 57 57 59 62 63 61 55 50 48 47 46 45 44 44 47 49 51 52 53
Wind_Direction
263 271 276 278 276 270 266 266 266 264 262 263 261 259 254 248 246 244 243 245 248 249 248 247 247 248 248 248 248 249 250 249 248 249 252 250 250 254 261 265 266 267 266
286 281 281 283 280 277 275 270 265 261 257 255 258 261 263 265 266 264 259 257 257 258 257 256 255 255 255 255 255 255 253 253 252 253 254 256 257 261 264 266 269 270 267
326 317 305 302 302 299 287 271 262 255 248 246 248 255 262 268 271 270 265 259 257 258 259 260 260 259 259 258 259 259 259 259 260 261 261 261 262 263 265 268 271 273 271
320 330 333 327 314 302 290 274 257 246 240 238 240 247 256 263 267 266 264 263 262 261 260 261 263 263 262 261 261 263 265 265 264 263 265 266 267 266 266 267 270 273 273
305 321 337 333 309 292 282 267 255 243 237 235 241 249 256 262 268 271 272 271 270 266 263 262 262 263 264 264 264 267 269 269 265 263 264 266 265 264 265 267 268 269 270
312 303 303 310 302 295 276 253 236 226 233 245 255 258 260 267 276 278 276 273 270 268 265 261 260 261 265 266 267 271 274 271 266 264 267 269 270 269 268 269 270 269 269
336 311 289 270 266 272 256 244 237 247 254 260 261 263 265 268 273 275 277 276 273 269 267 265 264 265 267 269 269 271 272 272 270 269 271 271 272 273 275 276 277 276 275
358 351 264 231 235 239 244 245 246 254 258 257 256 259 263 266 269 271 275 277 275 273 270 269 271 272 271 270 269 269 272 273 271 269 269 271 271 272 275 277 278 279 280
12 4 340 233 230 231 234 238 241 248 251 254 256 259 260 267 274 278 280 279 276 274 272 274 275 275 275 274 271 271 271 271 270 270 271 273 273 273 273 274 274 274 275
19 17 18 360 258 237 234 235 242 249 255 260 265 269 273 277 281 283 284 282 278 278 280 280 279 279 278 277 275 274 274 273 272 273 275 276 276 275 274 273 273 271 270
9 7 17 20 3 255 241 237 242 251 263 269 271 274 278 281 284 285 286 285 285 284 283 281 280 280 280 280 279 278 277 277 278 279 280 280 280 279 277 276 276 275 273
2 359 5 15 16 347 275 252 252 263 276 281 281 286 291 291 286 285 289 292 293 290 288 287 285 284 283 283 283 283 281 280 280 281 281 283 284 283 281 278 278 277 274
352 352 2 7 2 351 329 300 286 284 287 291 292 295 299 299 292 292 297 298 298 297 296 294 292 290 290 288 284 282 281 280 281 282 284 285 284 285 285 282 279 275 273
343 349 0 9 356 345 331 312 300 298 301 303 300 300 304 306 303 302 305 302 296 295 295 294 292 293 294 291 285 283 283 283 285 288 288 285 282 281 281 280 279 276 274
315 319 330 342 339 333 327 319 313 314 313 310 309 309 309 306 300 300 306 305 297 294 294 294 294 293 293 293 291 290 289 288 288 288 288 287 284 283 281 279 276 274 273
300 295 303 308 326 341 339 331 327 327 322 315 312 310 308 304 298 295 296 293 291 293 296 298 298 297 296 295 293 291 290 289 288 287 286 287 286 284 283 281 278 275 273
303 293 293 296 327 345 342 331 325 322 318 314 311 308 304 300 296 295 295 293 292 295 299 301 301 300 299 298 295 294 291 288 286 285 283 283 282 281 280 279 277 275 273
291 290 288 285 305 318 315 310 307 309 313 316 313 308 306 305 304 303 302 300 299 300 302 302 300 298 296 295 292 290 287 284 282 280 279 279 278 278 277 276 275 275 274
278 280 286 284 287 293 296 298 299 301 306 310 310 308 307 305 303 300 299 297 295 296 300 302 301 297 295 293 290 288 285 282 279 277 277 277 278 278 277 276 275 275 274
270 277 285 290 293 298 302 302 299 299 303 307 307 305 303 300 297 295 293 292 292 295 299 301 301 299 295 292 290 288 286 282 280 279 278 278 278 277 276 274 275 275 273
261 267 278 289 296 300 303 307 304 299 299 303 305 303 301 297 292 288 287 288 291 294 297 300 301 300 297 294 291 288 286 283 281 279 279 280 279 278 276 275 274 274 274
259 262 271 281 292 298 302 305 306 301 297 298 299 300 298 296 293 288 284 283 286 291 295 297 298 298 297 295 293 291 288 286 284 283 281 279 279 278 275 274 273 272 271
264 272 279 282 288 294 297 301 303 301 298 299 300 298 298 294 289 287 286 285 286 290 294 296 296 296 295 295 295 294 290 287 285 284 283 280 277 274 273 273 273 272 271
265 271 277 282 284 289 295 299 301 299 296 296 299 298 298 297 290 287 288 289 288 288 292 295 296 296 296 295 294 293 291 288 286 286 284 279 275 273 272 272 273 274 274
265 269 275 279 282 288 293 297 296 296 296 296 297 298 299 298 294 292 291 291 289 288 290 293 295 295 295 295 294 293 291 290 288 286 284 279 276 274 271 271 272 274 275
269 271 275 278 282 288 290 292 294 297 300 301 299 298 299 300 299 296 293 292 292 292 292 293 295 294 294 294 294 293 291 289 288 286 283 280 276 274 274 274 274 274 274
Height
5896 5894 5893 5893 5893 5893 5894 5895 5895 5895 5896 5897 5897 5897 5898 5898 5898 5897 5897 5898 5899 5899 5900 5900 5900 5901 5901 5902 5902 5903 5904 5904 5905 5905 5905 5905 5906 5906 5906 5907 5906 5906 5907
5894 5893 5892 5892 5891 5892 5892 5893 5893 5893 5893 5894 5894 5894 5895 5895 5895 5895 5895 5895 5896 5896 5897 5897 5897 5897 5898 5899 5899 5900 5901 5901 5902 5902 5902 5903 5903 5903 5903 5903 5902 5903 5903
5892 5891 5891 5890 5891 5891 5891 5891 5891 5891 5891 5891 5891 5892 5892 5891 5891 5891 5892 5892 5892 5893 5894 5894 5894 5894 5894 5895 5896 5897 5898 5898 5899 5899 5899 5899 5899 5899 5899 5899 5898 5898 5898
5890 5889 5888 5889 5889 5890 5889 5889 5888 5888 5888 5888 5888 5888 5888 5888 5887 5887 5887 5888 5889 5890 5890 5891 5891 5891 5891 5892 5892 5893 5893 5894 5894 5894 5894 5894 5894 5894 5894 5894 5894 5893 5893
5887 5886 5887 5887 5888 5888 5887 5886 5886 5886 5886 5886 5885 5885 5885 5885 5885 5885 5884 5885 5885 5886 5886 5887 5887 5887 5887 5888 5888 5888 5888 5889 5889 5888 5888 5888 5888 5888 5888 5888 5888 5888 5888
5884 5883 5884 5885 5885 5885 5884 5884 5883 5883 5883 5883 5883 5883 5883 5883 5882 5882 5882 5882 5882 5882 5883 5883 5883 5883 5883 5883 5883 5883 5883 5883 5883 5883 5882 5882 5882 5882 5881 5881 5881 5881 5881
5881 5880 5880 5880 5881 5882 5882 5882 5882 5882 5881 5880 5880 5880 5880 5879 5880 5880 5880 5880 5880 5879 5879 5880 5879 5879 5878 5878 5878 5877 5876 5877 5877 5877 5876 5875 5875 5875 5875 5874 5874 5874 5874
5879 5877 5876 5876 5877 5878 5879 5879 5880 5879 5878 5878 5878 5878 5877 5877 5877 5877 5878 5877 5877 5877 5876 5876 5876 5875 5874 5873 5873 5872 5872 5871 5870 5870 5869 5868 5868 5867 5868 5868 5868 5868 5867
5878 5877 5875 5874 5874 5874 5875 5875 5876 5876 5876 5876 5876 5876 5876 5876 5875 5875 5874 5874 5874 5874 5873 5873 5872 5871 5870 5869 5868 5867 5867 5866 5864 5863 5862 5862 5862 5861 5861 5860 5861 5861 5861
5878 5877 5875 5873 5872 5872 5872 5872 5873 5874 5874 5874 5874 5874 5874 5873 5872 5871 5870 5870 5870 5869 5868 5868 5867 5866 5865 5864 5863 5862 5862 5860 5859 5857 5856 5856 5856 5855 5854 5853 5853 5853 5853
5878 5877 5875 5873 5871 5870 5870 5870 5871 5871 5871 5871 5871 5871 5870 5870 5868 5867 5866 5866 5865 5863 5863 5863 5862 5861 5860 5859 5858 5857 5856 5855 5854 5852 5850 5850 5849 5849 5848 5847 5846 5845 5845
5878 5876 5874 5872 5871 5869 5869 5868 5868 5869 5869 5868 5868 5868 5867 5866 5864 5863 5862 5861 5860 5859 5858 5858 5857 5856 5855 5854 5853 5852 5851 5850 5848 5846 5844 5844 5842 5841 5840 5839 5838 5838 5837
5879 5876 5874 5872 5870 5869 5868 5867 5867 5867 5866 5866 5865 5864 5863 5861 5860 5858 5857 5856 5855 5854 5853 5853 5852 5851 5850 5849 5847 5846 5845 5844 5842 5840 5837 5836 5834 5833 5831 5830 5829 5828 5828
5878 5876 5873 5870 5868 5867 5866 5865 5864 5864 5863 5863 5861 5860 5858 5856 5854 5853 5852 5850 5850 5849 5848 5847 5846 5845 5844 5842 5841 5840 5839 5837 5834 5831 5828 5827 5825 5823 5822 5820 5818 5817 5816
5876 5874 5872 5869 5867 5865 5864 5863 5862 5861 5860 5859 5857 5856 5854 5852 5851 5850 5848 5847 5845 5844 5843 5842 5840 5838 5837 5835 5834 5832 5830 5828 5826 5823 5820 5818 5816 5813 5811 5809 5807 5806 5805
5874 5872 5869 5867 5864 5863 5862 5861 5860 5859 5857 5856 5854 5852 5850 5848 5847 5846 5844 5842 5840 5839 5837 5835 5834 5831 5829 5827 5825 5823 5821 5818 5815 5813 5809 5805 5804 5801 5798 5797 5795 5794 5793
5871 5869 5867 5865 5863 5861 5860 5859 5857 5856 5854 5852 5850 5848 5846 5844 5842 5840 5838 5837 5835 5833 5831 5828 5826 5824 5821 5819 5816 5814 5811 5808 5804 5801 5797 5792 5789 5787 5785 5782 5780 5780 5779
5867 5866 5864 5863 5861 5859 5858 5856 5855 5853 5851 5849 5847 5844 5842 5839 5837 5835 5833 5831 5828 5826 5824 5821 5819 5816 5813 5810 5807 5803 5800 5796 5792 5788 5783 5779 5775 5772 5769 5767 5766 5764 5763
5863 5862 5861 5860 5859 5857 5855 5853 5852 5850 5848 5846 5843 5841 5838 5835 5833 5830 5827 5824 5822 5819 5817 5814 5811 5807 5804 5800 5796 5792 5788 5783 5779 5774 5769 5765 5761 5758 5755 5750 5750 5748 5746
5859 5858 5857 5856 5855 5854 5852 5850 5848 5847 5844 5842 5839 5836 5834 5831 5828 5825 5821 5818 5815 5813 5810 5806 5802 5798 5794 5790 5784 5779 5774 5769 5764 5759 5755 5750 5746 5743 5739 5734 5732 5730 5729
5854 5853 5852 5851 5850 5849 5848 5846 5844 5842 5840 5837 5834 5831 5829 5825 5822 5818 5815 5812 5808 5805 5801 5797 5792 5787 5783 5778 5772 5766 5760 5754 5749 5744 5739 5734 5729 5724 5721 5718 5716 5714 5712
5849 5847 5846 5846 5845 5844 5842 5840 5838 5835 5833 5831 5828 5825 5822 5819 5815 5811 5807 5803 5799 5795 5791 5786 5781 5775 5770 5764 5758 5752 5745 5739 5731 5726 5722 5717 5711 5707 5704 5702 5700 5700 5699
5844 5842 5840 5839 5838 5836 5834 5831 5828 5826 5824 5821 5819 5816 5813 5810 5806 5802 5798 5794 5789 5784 5780 5774 5768 5762 5755 5748 5741 5736 5729 5722 5715 5709 5703 5699 5696 5693 5692 5690 5689 5687 5687
5837 5835 5833 5831 5829 5827 5825 5822 5819 5817 5814 5811 5808 5805 5801 5798 5794 5791 5787 5782 5777 5771 5766 5760 5753 5746 5740 5732 5724 5718 5711 5704 5698 5694 5688 5684 5683 5682 5680 5678 5676 5675 5674
5829 5827 5825 5823 5821 5819 5816 5813 5810 5807 5804 5800 5796 5793 5788 5785 5781 5777 5773 5767 5762 5756 5751 5745 5738 5731 5724 5718 5709 5702 5694 5687 5681 5678 5675 5673 5671 5669 5667 5666 5664 5662 5661
5820 5818 5816 5814 5811 5809 5806 5804 5801 5798 5794 5789 5785 5782 5777 5772 5769 5764 5759 5754 5748 5742 5736 5730 5723 5716 5710 5702 5694 5687 5680 5674 5669 5665 5661 5659 5657 5657 5654 5652 5650 5648 5646